Regional Weather Roundup
Issued by NWS Little Rock, AR

Home | Current Version | Previous Version | Text Only | Print | Product List | Glossary Off
Versions: 1 2 3 4 5 6 7 8 9 10 11 12 13 14 15 16 17 18 19 20 21 22 23 24 25 26 27 28 29 30 31 32 33 34 35 36 37 38 39 40 41 42 43 44 45 46 47 48 49 50

000
ASUS44 KLZK 231605
RWRLZK

WEATHER ROUNDUP FOR ARKANSAS
NATIONAL WEATHER SERVICE LITTLE ROCK AR
1100 AM CDT TUE SEP 23 2014

NOTE: "FAIR" INDICATES FEW OR NO CLOUDS BELOW 12,000 FEET WITH NO
SIGNIFICANT WEATHER AND/OR OBSTRUCTIONS TO VISIBILITY.

ARZ001-003-010-029-231700-
NORTHWEST ARKANSAS

CITY           SKY/WX    TMP DP  RH WIND       PRES   REMARKS
FAYETTEVILLE   SUNNY     67  49  52 VRB5      30.28F
FORT SMITH     MOSUNNY   68  53  58 NE8       30.27R
HARRISON       SUNNY     65  50  58 SE9       30.30S
BENTONVILLE    SUNNY     66  48  52 S9        30.30S
ROGERS         SUNNY     66  47  50 SE10      30.30S
SILOAM SPGS    SUNNY     68  48  49 S8        30.30S
HIGHFILL       SUNNY     66  49  54 SE9       30.29R
SPRINGDALE     MOSUNNY   64  52  63 SE7       30.31R
$$

ARZ004-005-016-231700-
NORTH CENTRAL ARKANSAS

CITY           SKY/WX    TMP DP  RH WIND       PRES   REMARKS
BATESVILLE     SUNNY     70  46  43 E9        30.30S
FLIPPIN        SUNNY     63  48  59 CALM      30.31S
MTN HOME       SUNNY     65  50  58 S6        30.30S
$$

ARZ040-041-231700-
WEST CENTRAL ARKANSAS

CITY           SKY/WX    TMP DP  RH WIND       PRES   REMARKS
MENA           SUNNY     68  54  60 CALM      30.27S
MOUNT IDA      SUNNY     68  53  58 SE5       30.24S
$$

ARZ009-017-025-026-028-231700-
NORTHEAST ARKANSAS

CITY           SKY/WX    TMP DP  RH WIND       PRES   REMARKS
CORNING          N/A     66  50  55 NE6       30.31S
JONESBORO      SUNNY     68  48  48 NE7       30.29R
NEWPORT        SUNNY     69  50  50 VRB5      30.31R
WALNUT RIDGE   SUNNY     66  52  59 NE7       30.30S
BLYTHEVILLE    SUNNY     70  51  51 E6        30.29R
NW BLYTHEVILLE MOSUNNY   68  50  52 E7        30.29R
$$

ARZ022-023-033-042-044-231700-
CENTRAL ARKANSAS

CITY           SKY/WX    TMP DP  RH WIND       PRES   REMARKS
LITTLE ROCK    MOSUNNY   70  48  45 E5        30.27S
N LITTLE ROCK  MOSUNNY   72  52  49 NE8       30.27S
JACKSONVILLE   SUNNY     70  49  47 VRB2      30.27S
SEARCY           N/A    N/A N/A N/A MISG        N/A
HOT SPRINGS    SUNNY     69  47  45 E8        30.26F
RUSSELLVILLE   SUNNY     69  50  50 VRB6      30.28S
CLINTON        FAIR      70  50  49 SE6       30.29F
$$

ARZ036-231700-
EAST ARKANSAS

CITY           SKY/WX    TMP DP  RH WIND       PRES   REMARKS
WEST MEMPHIS   SUNNY     71  49  45 E7G20     30.25S
$$

ARZ050-053-066-070-073-231700-
SOUTHWEST ARKANSAS

CITY           SKY/WX    TMP DP  RH WIND       PRES   REMARKS
ARKADELPHIA    FAIR      71  54  55 E5        30.25F
CAMDEN         SUNNY     75  48  38 E5        30.24S
TEXARKANA      SUNNY     70  54  56 NE3       30.23S
EL DORADO      SUNNY     71  53  52 NE6       30.23S
DE QUEEN       MOSUNNY   71  52  50 E9        30.22S
$$

ARZ056-057-069-231700-
SOUTHEAST ARKANSAS

CITY           SKY/WX    TMP DP  RH WIND       PRES   REMARKS
PINE BLUFF     SUNNY     70  48  45 NE6       30.26S
STUTTGART      SUNNY     70  48  46 NE9       30.27S
MONTICELLO     SUNNY     73  49  42 NE6       30.23S

$$





USA.gov is the U.S. government's official web portal to all federal, state and local government web resources and services.